TimeCDT,TemperatureF,Dew PointF,Humidity,Sea Level PressureIn,VisibilityMPH,Wind Direction,Wind SpeedMPH,Gust SpeedMPH,PrecipitationIn,Events,Conditions,WindDirDegrees,DateUTC
12:14 AM,26.1,20.8,81,29.90,-9999.0,North,13.8,21.9,N/A,,Overcast,350,2013-03-11 05:14:00
12:34 AM,25.9,20.7,81,29.90,-9999.0,North,13.8,21.9,N/A,,Overcast,350,2013-03-11 05:34:00
12:53 AM,25.7,20.3,80,29.89,-9999.0,North,16.1,25.3,N/A,,Overcast,350,2013-03-11 05:53:00
1:14 AM,25.7,20.3,80,29.89,-9999.0,NNW,13.8,20.7,N/A,,Overcast,340,2013-03-11 06:14:00
1:34 AM,25.5,20.3,81,29.88,-9999.0,North,12.7,18.4,N/A,,Overcast,350,2013-03-11 06:34:00
1:53 AM,25.5,20.3,81,29.88,-9999.0,NNW,13.8,19.6,N/A,,Overcast,340,2013-03-11 06:53:00
2:14 AM,25.2,20.3,82,29.88,-9999.0,NNW,13.8,19.6,N/A,,Overcast,340,2013-03-11 07:14:00
2:34 AM,25.2,20.1,81,29.88,-9999.0,North,11.5,19.6,N/A,,Overcast,350,2013-03-11 07:34:00
2:53 AM,25.2,20.1,81,29.88,-9999.0,North,12.7,20.7,N/A,,Overcast,350,2013-03-11 07:53:00
3:14 AM,24.8,19.9,82,29.87,-9999.0,North,13.8,21.9,N/A,,Overcast,350,2013-03-11 08:14:00
3:33 AM,24.8,19.9,82,29.86,-9999.0,North,9.2,19.6,N/A,,Overcast,350,2013-03-11 08:33:00
3:54 AM,24.6,19.8,82,29.85,-9999.0,North,10.4,17.3,N/A,,Overcast,350,2013-03-11 08:54:00
4:14 AM,24.6,19.8,82,29.84,-9999.0,NNW,11.5,18.4,N/A,,Overcast,340,2013-03-11 09:14:00
4:34 AM,24.6,20.1,83,29.84,-9999.0,NNW,13.8,-,N/A,,Overcast,340,2013-03-11 09:34:00
4:54 AM,24.6,19.9,82,29.84,-9999.0,NNW,15.0,-,N/A,,Overcast,340,2013-03-11 09:54:00
5:14 AM,24.6,20.1,83,29.84,-9999.0,NNW,12.7,17.3,N/A,,Overcast,340,2013-03-11 10:14:00
5:34 AM,24.6,19.9,82,29.83,-9999.0,NNW,12.7,19.6,N/A,,Overcast,340,2013-03-11 10:34:00
5:54 AM,24.4,19.9,83,29.83,-9999.0,NNW,12.7,-,N/A,,Overcast,340,2013-03-11 10:54:00
6:14 AM,24.3,20.1,84,29.83,-9999.0,NNW,11.5,-,N/A,,Overcast,330,2013-03-11 11:14:00
6:34 AM,23.9,19.9,85,29.83,-9999.0,NNW,13.8,-,N/A,,Overcast,330,2013-03-11 11:34:00
6:54 AM,23.9,19.8,84,29.83,10.0,NNW,13.8,-,N/A,,Overcast,330,2013-03-11 11:54:00
7:14 AM,23.7,19.4,84,29.83,-9999.0,NNW,12.7,-,N/A,,Overcast,330,2013-03-11 12:14:00
7:34 AM,23.7,19.4,84,29.83,10.0,NW,12.7,-,N/A,,Overcast,320,2013-03-11 12:34:00
7:53 AM,23.5,19.6,85,29.84,10.0,NW,12.7,-,N/A,,Overcast,320,2013-03-11 12:53:00
8:14 AM,22.6,19.2,87,29.84,10.0,NW,13.8,-,N/A,,Overcast,320,2013-03-11 13:14:00
8:34 AM,22.1,18.7,87,29.84,10.0,NNW,15.0,23.0,N/A,,Overcast,330,2013-03-11 13:34:00
8:54 AM,22.1,18.5,86,29.84,10.0,NW,13.8,-,N/A,,Overcast,320,2013-03-11 13:54:00
9:13 AM,22.5,18.3,84,29.83,10.0,NW,11.5,-,N/A,,Overcast,320,2013-03-11 14:13:00
9:30 AM,22.5,18.3,84,29.84,10.0,NW,11.5,-,N/A,,Overcast,320,2013-03-11 14:30:00
9:54 AM,22.6,18.3,83,29.83,10.0,NW,9.2,-,N/A,,Overcast,310,2013-03-11 14:54:00
10:14 AM,22.6,18.1,83,29.83,10.0,NW,10.4,-,N/A,,Overcast,310,2013-03-11 15:14:00
10:34 AM,23.0,18.3,82,29.83,10.0,NW,11.5,-,N/A,,Overcast,320,2013-03-11 15:34:00
10:54 AM,23.0,18.3,82,29.83,10.0,NW,11.5,-,N/A,,Overcast,310,2013-03-11 15:54:00
11:14 AM,23.0,18.1,82,29.83,10.0,NW,10.4,-,N/A,,Overcast,320,2013-03-11 16:14:00
11:34 AM,23.7,18.5,80,29.82,10.0,NW,11.5,-,N/A,,Overcast,310,2013-03-11 16:34:00
11:54 AM,23.9,18.3,79,29.82,10.0,NW,11.5,-,N/A,,Overcast,310,2013-03-11 16:54:00
12:14 PM,25.3,19.2,78,29.81,10.0,WNW,12.7,-,N/A,,Overcast,300,2013-03-11 17:14:00
12:33 PM,25.5,19.2,77,29.81,10.0,NW,13.8,-,N/A,,Overcast,310,2013-03-11 17:33:00
12:53 PM,25.7,18.9,75,29.80,10.0,NW,16.1,-,N/A,,Overcast,310,2013-03-11 17:53:00
1:14 PM,26.2,19.4,75,29.80,10.0,NW,16.1,-,N/A,,Overcast,310,2013-03-11 18:14:00
1:33 PM,26.8,19.0,73,29.79,10.0,WNW,16.1,-,N/A,,Overcast,300,2013-03-11 18:33:00
1:34 PM,26.8,18.9,72,29.79,10.0,WNW,15.0,-,N/A,,Overcast,300,2013-03-11 18:34:00
2:05 PM,26.6,17.6,69,29.78,10.0,NW,16.1,-,N/A,,Mostly Cloudy,320,2013-03-11 19:05:00
2:25 PM,26.6,19.4,74,29.78,10.0,NW,15.0,18.4,N/A,,Scattered Clouds,320,2013-03-11 19:25:00
2:55 PM,26.4,18.3,71,29.77,10.0,NW,15.0,-,N/A,,Scattered Clouds,310,2013-03-11 19:55:00
3:14 PM,27.0,18.5,70,29.78,10.0,WNW,11.5,-,N/A,,Mostly Cloudy,300,2013-03-11 20:14:00
3:51 PM,27.0,17.8,68,29.78,10.0,WNW,11.5,-,N/A,,Overcast,300,2013-03-11 20:51:00
4:05 PM,27.1,17.2,66,29.79,10.0,WNW,10.4,17.3,N/A,,Overcast,300,2013-03-11 21:05:00
4:25 PM,26.6,17.6,69,29.79,10.0,WNW,13.8,-,N/A,,Mostly Cloudy,300,2013-03-11 21:25:00
4:45 PM,26.6,17.6,69,29.79,10.0,West,16.1,-,N/A,,Scattered Clouds,280,2013-03-11 21:45:00
5:05 PM,23.0,17.6,80,29.79,10.0,West,15.0,-,N/A,,Mostly Cloudy,280,2013-03-11 22:05:00
5:25 PM,23.0,17.6,80,29.79,10.0,West,12.7,18.4,N/A,,Scattered Clouds,280,2013-03-11 22:25:00
5:45 PM,23.0,17.6,80,29.80,10.0,WNW,12.7,-,N/A,,Mostly Cloudy,290,2013-03-11 22:45:00
6:05 PM,23.0,15.8,74,29.79,10.0,WNW,12.7,-,N/A,,Mostly Cloudy,290,2013-03-11 23:05:00
6:25 PM,23.0,15.8,74,29.80,10.0,WNW,9.2,-,N/A,,Scattered Clouds,290,2013-03-11 23:25:00
6:45 PM,23.0,15.8,74,29.82,10.0,WNW,10.4,-,N/A,,Clear,290,2013-03-11 23:45:00
7:05 PM,21.2,15.8,80,29.82,10.0,WNW,10.4,-,N/A,,Clear,290,2013-03-12 00:05:00
7:25 PM,19.4,15.8,86,29.82,10.0,West,9.2,-,N/A,,Clear,280,2013-03-12 00:25:00
7:45 PM,19.4,15.8,86,29.82,10.0,WNW,5.8,-,N/A,,Scattered Clouds,290,2013-03-12 00:45:00
8:05 PM,17.6,14.0,86,29.83,10.0,West,9.2,-,N/A,,Clear,280,2013-03-12 01:05:00
8:25 PM,17.6,15.8,93,29.83,10.0,West,9.2,-,N/A,,Mostly Cloudy,280,2013-03-12 01:25:00
8:45 PM,17.6,14.0,86,29.84,10.0,West,9.2,-,N/A,,Scattered Clouds,270,2013-03-12 01:45:00
9:05 PM,17.6,14.0,86,29.84,10.0,West,11.5,-,N/A,,Mostly Cloudy,270,2013-03-12 02:05:00
9:25 PM,19.4,14.0,80,29.84,10.0,West,10.4,-,N/A,,Overcast,280,2013-03-12 02:25:00
9:47 PM,19.9,15.3,82,29.85,10.0,West,11.5,-,N/A,,Overcast,270,2013-03-12 02:47:00
10:14 PM,20.3,15.1,80,29.85,10.0,West,10.4,-,N/A,,Overcast,280,2013-03-12 03:14:00
10:34 PM,20.5,15.1,80,29.85,10.0,West,11.5,-,N/A,,Overcast,270,2013-03-12 03:34:00
10:54 PM,20.3,15.4,81,29.86,10.0,West,10.4,-,N/A,,Overcast,270,2013-03-12 03:54:00
11:14 PM,20.3,14.9,80,29.85,10.0,West,8.1,-,N/A,,Overcast,270,2013-03-12 04:14:00
11:34 PM,20.3,14.4,78,29.85,10.0,West,8.1,-,N/A,,Overcast,270,2013-03-12 04:34:00
11:53 PM,20.1,14.7,80,29.85,10.0,West,6.9,-,N/A,,Overcast,270,2013-03-12 04:53:00